Tracking 18840 objects as of 18-November-2017
HD Live streaming from Space Station
objects crossing your sky now

ORBCOMM FM 12

Track ORBCOMM FM 12 now!
10-day predictions
ORBCOMM FM 12 is classified as:


NORAD ID: 25115
Int'l Code: 1997-084D
Perigee: 764.9 km
Apogee: 775.2 km
Inclination: 45.0 °
Period: 100.1 minutes
Semi major axis: 7141 km
RCS: 0.9664 m2 (medium)
Launch date: December 23, 1997
Source: ORBCOMM (ORB)
Launch site: Pegasus launched from Eastern Range Air Space (ERAS)
aabbcc
Your satellite tracking list
Your tracking list is empty




NASA's NSSDC Master Catalog

Two Line Element Set (TLE):
1 25115U 97084D   17321.17661762 +.00000112 +00000-0 +82256-4 0  9993
2 25115 045.0164 221.7074 0007212 335.4899 024.5606 14.38654259042121
Source of the keplerian elements: AFSPC